Theta_e
290 289 290 288 289 289 288 289 288 286 288 288 289 287 287 288 289 290 290 290 290 291 291 291 291 291 292 291 293 292 294 295 296 298 299 300 302 303 305 305 308 306 308 313 312 314 313 310 310 313 314 312 312 314
291 290 289 288 288 289 288 289 288 286 288 289 290 290 290 289 289 289 290 290 290 290 290 291 291 290 290 290 290 291 293 293 294 297 297 297 299 300 300 305 302 308 308 309 312 313 311 309 310 309 309 310 311 311
291 291 290 289 288 289 289 288 287 286 288 289 290 291 291 291 291 290 290 290 290 290 291 291 291 291 290 290 291 292 292 293 294 295 295 297 296 297 299 301 300 301 301 308 308 309 311 310 308 308 308 308 309 309
290 290 290 289 288 289 289 288 287 287 288 289 290 291 291 292 292 292 291 291 291 291 292 292 290 290 291 291 291 292 292 291 293 294 295 297 296 296 298 298 299 300 300 304 310 308 309 310 307 308 307 307 307 308
290 291 290 289 288 289 289 287 286 287 288 290 291 291 291 292 292 292 291 291 291 291 293 292 292 291 289 290 291 291 291 291 292 294 296 296 295 296 298 298 299 301 302 301 304 301 303 305 305 308 307 307 306 308
290 290 290 289 288 289 289 286 285 288 289 290 290 291 291 291 291 291 292 291 290 290 291 293 292 291 291 292 292 293 293 292 292 294 295 295 295 295 298 299 299 300 298 298 299 300 301 300 305 306 308 307 305 306
290 289 289 289 288 289 288 285 285 288 289 289 291 291 292 291 291 290 292 291 290 290 290 292 292 292 290 293 294 294 292 293 293 293 294 295 295 295 297 296 296 297 299 297 298 299 300 299 299 304 305 308 306 306
289 289 289 288 289 289 287 284 287 288 289 290 291 291 291 292 290 290 291 290 290 290 289 292 292 292 290 292 294 294 293 292 294 294 295 295 295 295 296 296 295 295 295 295 297 300 300 300 298 300 305 307 308 306
289 289 288 289 289 288 286 285 288 289 290 291 291 291 291 290 290 290 290 290 289 289 290 290 292 292 291 292 293 293 294 295 294 296 295 295 296 296 296 295 295 295 296 297 299 300 298 299 299 300 303 307 307 306
289 289 288 289 288 287 285 287 289 290 291 292 292 292 290 291 290 289 289 290 289 289 290 291 290 292 291 291 292 292 294 294 295 295 295 296 296 295 295 295 295 295 295 295 298 298 296 296 298 299 301 302 306 305
290 289 289 289 287 285 286 290 291 291 292 293 291 290 290 290 290 289 291 291 290 290 290 290 290 292 291 292 292 292 294 294 294 296 296 295 295 295 295 295 296 297 296 295 295 295 295 295 297 300 299 302 300 302
290 289 289 288 286 286 290 291 292 292 293 293 291 290 289 289 290 291 291 290 291 291 290 291 292 292 292 290 292 293 294 294 293 295 296 295 295 295 295 297 298 297 296 295 295 295 296 296 296 298 299 300 299 299
290 289 288 287 286 290 291 292 292 292 293 291 290 290 291 289 291 291 291 292 292 292 291 291 293 292 292 292 292 294 294 294 295 296 295 295 295 295 296 297 297 297 297 297 297 298 297 297 297 297 298 298 295 293
290 288 288 286 290 291 292 291 292 292 291 291 291 291 292 291 291 292 292 292 291 291 291 292 292 293 293 294 294 293 294 294 294 294 293 295 294 295 296 296 295 295 295 295 295 294 294 293 292 292 292 292 293 293
289 288 286 288 291 291 291 291 291 291 290 291 291 292 292 291 291 291 291 291 291 291 291 292 293 293 294 294 294 294 294 294 294 293 295 295 294 295 295 295 296 296 295 295 295 295 294 294 294 294 293 293 293 293
288 287 287 290 291 290 291 291 290 290 290 291 291 292 292 292 292 292 292 292 292 292 291 292 293 294 294 294 294 294 293 293 293 295 295 295 295 295 295 295 294 294 294 295 295 295 295 294 294 294 294 294 293 294
288 286 289 291 291 290 290 291 290 290 291 291 292 292 292 292 293 293 293 292 292 292 294 294 293 293 294 294 294 294 294 294 294 294 294 294 294 295 295 295 294 294 294 294 294 294 293 293 294 294 295 295 294 294
287 288 291 292 291 290 290 290 291 291 291 291 292 292 291 292 292 292 292 292 292 292 293 293 293 293 293 293 293 294 294 294 294 294 293 294 294 295 294 295 294 294 294 294 294 294 294 294 294 294 294 294 294 294
287 289 291 291 291 290 290 290 290 291 291 292 291 291 291 291 291 291 291 291 291 292 292 293 293 293 293 294 294 294 294 294 294 294 294 294 294 294 294 294 293 294 294 295 294 294 294 294 294 294 294 294 294 294
286 288 291 290 290 290 290 290 290 291 291 292 292 292 292 292 293 293 292 292 291 292 292 293 293 293 293 293 293 293 293 293 294 294 293 294 295 294 294 294 294 294 294 294 294 294 294 294 294 294 293 293 292 292
284 287 290 290 290 290 291 291 291 292 293 293 293 293 293 293 293 293 293 293 292 293 293 293 293 293 293 293 293 293 293 293 293 293 293 294 294 294 294 294 294 294 294 294 293 293 292 292 291 290 290 289 289 290
284 287 289 290 291 291 290 291 292 292 292 293 293 292 293 294 294 294 293 293 293 294 294 294 294 294 294 294 294 294 293 293 293 293 293 293 293 294 294 294 293 293 293 292 292 290 289 289 288 287 287 288 287 288
286 289 290 289 290 291 292 290 292 292 293 293 293 293 294 294 294 293 295 295 295 293 292 292 292 292 292 292 292 293 293 293 293 293 293 293 293 293 293 292 292 292 291 290 288 288 287 286 286 286 286 287 287 288
288 290 289 290 290 291 290 291 291 292 292 293 293 293 294 294 293 294 295 295 294 292 291 291 290 291 292 291 290 291 292 291 292 292 292 291 291 291 291 291 290 289 288 287 286 285 285 285 285 286 286 286 286 286
289 290 290 290 290 291 291 292 292 292 292 292 293 294 295 293 295 295 295 295 293 292 291 290 290 290 290 290 290 290 290 290 290 290 290 290 290 289 288 287 287 287 287 286 286 286 285 285 285 285 285 285 285 286
288 288 289 290 290 291 291 291 291 292 292 292 293 294 293 295 294 294 295 295 292 291 290 289 289 289 289 289 289 289 288 289 289 288 288 288 288 288 287 287 286 285 286 286 286 285 285 285 284 285 284 284 285 285
289 289 288 288 290 290 291 291 291 292 292 292 294 293 294 293 293 294 292 293 292 291 290 289 289 288 288 288 287 287 286 288 288 288 287 287 287 287 287 287 286 286 286 285 285 285 284 284 284 284 284 283 284 284
288 288 288 288 289 290 291 292 292 293 293 293 292 292 293 293 294 293 293 292 291 290 289 289 288 286 286 287 287 286 286 286 287 287 286 286 287 287 286 286 286 285 285 285 285 284 284 284 284 283 283 283 283 283
288 288 287 288 287 289 290 292 292 292 292 292 294 294 293 291 291 292 292 291 291 290 289 288 288 287 286 286 286 287 286 286 286 286 286 286 286 286 285 284 285 285 285 285 285 284 284 284 283 283 283 283 283 283
287 287 288 287 288 289 290 291 292 291 291 291 292 291 291 291 292 292 291 291 290 290 289 288 287 287 286 286 286 286 285 285 285 286 286 286 286 286 283 282 280 281 282 281 282 283 284 284 283 283 283 283 283 283
287 287 288 287 288 289 290 290 290 290 290 290 290 290 292 291 291 291 291 290 290 289 288 288 287 287 287 286 286 286 286 286 286 286 286 286 286 285 283 281 280 280 280 280 280 281 282 283 283 283 283 282 282 282
286 287 288 288 288 286 287 287 288 290 288 288 290 289 289 289 290 290 290 289 288 288 288 288 287 287 287 286 286 286 286 286 286 287 287 286 285 282 280 280 280 280 280 280 280 280 280 281 281 282 283 282 282 282
284 285 286 287 287 286 286 288 288 288 286 288 288 287 288 290 290 289 288 288 288 288 288 288 287 287 287 286 286 286 286 286 287 286 285 282 281 281 280 280 280 280 280 280 281 281 281 282 282 282 282 282 282 282
Wind_Speed
15 12 15 19 16 17 18 18 21 21 10 10 11 11 10 10 10 12 10 9 7 6 21 9 11 15 16 15 8 15 10 3 6 4 3 4 3 5 4 8 3 8 6 3 6 6 6 17 2 4 9 12 8 15
16 14 16 18 16 17 17 19 21 19 9 6 8 10 11 12 12 13 13 11 10 15 20 22 21 16 20 20 16 5 7 6 4 4 3 3 3 4 7 3 8 3 4 2 4 2 5 8 8 11 12 12 9 6
18 16 17 18 16 16 17 19 21 17 7 7 9 13 14 16 15 14 15 15 14 13 19 12 12 10 9 11 15 8 4 5 5 7 7 3 4 5 5 4 7 7 9 5 5 4 1 8 14 18 18 14 12 6
17 17 17 17 16 17 19 20 20 16 8 10 11 15 18 21 23 19 15 15 20 8 6 7 8 14 15 13 17 21 14 13 11 11 8 3 4 4 5 8 11 7 8 6 4 5 6 3 20 20 20 18 14 7
17 16 16 17 16 17 19 20 19 14 9 9 13 17 19 22 20 12 16 21 21 13 8 17 22 7 6 3 11 16 16 13 10 5 4 3 5 5 6 6 8 3 5 4 3 10 9 8 16 18 18 21 16 9
17 17 16 16 16 16 20 20 18 14 9 12 13 16 18 18 15 11 5 3 6 14 5 4 7 7 5 5 8 12 12 10 7 5 6 5 6 4 4 4 3 3 5 5 8 17 12 14 5 12 16 15 15 13
17 16 15 15 15 16 20 19 17 13 10 10 13 17 16 18 13 6 5 8 10 4 3 5 4 3 8 4 2 2 8 6 7 5 7 14 13 5 4 10 18 12 9 13 13 16 7 15 11 7 11 12 15 14
16 15 14 14 15 17 19 17 15 12 8 9 15 19 20 14 10 8 9 7 4 6 2 3 3 5 4 6 2 2 3 4 6 7 8 9 9 7 5 13 12 15 14 12 12 5 6 10 10 11 4 7 9 17
15 14 14 15 16 18 18 15 13 10 10 15 17 20 15 3 2 6 3 2 7 3 3 3 4 5 6 4 3 2 3 3 4 4 6 5 7 6 10 15 17 16 9 8 5 3 7 6 10 13 13 5 5 11
15 14 14 14 16 18 16 12 12 12 14 18 16 6 1 3 2 3 1 5 3 3 3 4 5 5 8 6 3 3 3 2 3 3 3 4 8 21 23 22 21 21 20 16 9 8 2 6 8 9 11 12 4 5
16 15 14 14 16 17 15 12 13 15 20 16 8 6 7 7 3 1 2 3 2 3 5 4 6 6 1 4 3 2 3 3 3 2 3 2 3 3 6 13 16 14 14 17 17 15 13 8 7 7 10 11 13 8
16 15 13 15 17 15 12 13 16 15 12 5 6 9 6 4 2 3 2 2 4 2 3 4 3 4 2 3 4 3 3 3 4 2 3 3 3 11 9 11 14 10 1 7 10 11 10 9 8 1 6 8 10 9
16 14 13 15 14 13 11 14 10 10 10 14 4 3 3 2 4 4 4 3 3 3 4 3 3 3 2 4 4 3 3 4 3 3 3 3 8 11 10 9 12 16 14 13 11 8 6 3 3 3 4 4 8 10
15 14 14 12 9 7 7 4 8 14 12 4 5 4 4 4 5 5 4 2 1 4 4 5 4 3 2 3 3 3 3 2 3 2 2 4 8 8 6 10 16 12 10 11 14 13 13 14 14 12 11 9 8 9
14 13 12 8 5 0 3 9 14 14 3 3 4 4 6 8 7 5 6 7 7 5 4 4 4 4 3 4 3 3 3 3 2 2 3 7 5 5 7 7 7 8 8 10 9 8 6 5 3 2 2 2 4 7
13 12 10 7 6 3 10 17 9 3 2 3 5 4 6 5 9 9 11 12 8 8 6 5 3 3 4 3 3 4 3 2 1 4 6 5 4 4 5 6 7 9 9 10 10 9 7 6 7 8 9 10 11 11
14 11 7 8 10 12 16 14 3 3 4 4 5 9 10 8 9 8 8 10 7 8 5 4 4 6 1 3 3 3 3 2 3 7 8 7 6 4 5 4 4 6 7 7 8 10 11 12 11 10 11 10 13 15
16 13 11 15 16 13 10 7 3 4 6 9 7 8 10 12 11 12 10 9 9 11 10 7 5 7 5 5 7 6 8 8 9 11 12 10 8 5 5 5 6 9 10 10 10 10 12 13 14 15 15 15 16 17
15 19 20 18 15 8 5 5 5 5 8 7 10 12 12 13 15 18 17 15 15 13 7 5 7 8 10 15 14 14 11 11 11 9 7 7 5 3 6 10 14 15 14 13 13 14 15 14 14 15 18 19 21 22
17 21 19 19 15 8 3 4 6 5 5 4 7 10 10 12 14 13 13 12 12 8 8 5 9 18 15 15 14 14 15 13 10 11 12 11 10 9 12 14 14 13 13 13 13 16 15 17 18 20 21 21 23 27
19 19 21 20 16 10 4 4 6 6 6 6 6 6 12 11 12 14 13 10 12 6 6 14 20 22 23 27 25 22 20 18 19 19 18 17 17 16 15 13 13 14 12 12 14 16 18 20 20 17 19 20 21 22
19 20 14 20 8 7 7 8 5 3 4 8 10 8 7 6 6 2 2 6 5 7 5 7 10 13 17 21 23 22 20 17 17 17 20 19 18 13 11 13 15 12 10 12 15 17 16 15 16 17 18 21 22 22
22 19 10 9 7 6 4 9 6 6 3 3 2 3 4 3 3 3 4 4 4 7 7 6 8 8 9 8 10 10 13 15 14 15 16 15 15 17 15 13 13 13 12 10 14 16 15 15 16 17 19 20 21 22
20 14 8 8 12 5 5 6 6 4 4 3 3 3 3 3 2 3 3 3 5 6 5 7 6 6 5 4 3 4 5 6 6 8 8 7 5 6 8 9 9 10 11 11 11 11 12 14 15 15 16 16 16 17
7 10 7 7 9 8 6 4 6 5 4 4 3 4 2 3 2 3 3 3 4 5 5 5 4 3 3 3 3 5 6 5 5 6 8 8 7 5 4 5 5 6 7 8 9 11 12 12 12 13 13 13 15 16
6 10 11 14 8 7 8 6 7 8 5 4 5 3 3 2 3 5 3 5 6 4 6 5 4 6 6 5 4 4 5 6 5 4 7 8 7 4 3 2 2 5 8 8 8 9 10 10 11 12 12 13 14 15
6 9 8 9 8 8 5 4 6 4 5 6 3 4 4 4 5 4 5 7 6 6 8 8 6 6 7 8 8 9 9 8 7 7 8 5 2 1 2 2 4 6 6 5 6 8 10 11 12 12 12 12 13 14
8 12 9 15 9 12 5 5 6 7 5 6 4 6 4 5 3 3 5 2 6 9 8 7 7 6 6 8 9 9 5 4 3 3 2 1 1 2 3 3 4 4 4 6 6 7 8 9 10 11 12 12 13 14
7 11 12 8 6 7 10 7 6 8 7 10 4 4 4 5 5 7 5 8 10 11 10 9 7 5 5 7 7 5 6 5 3 1 1 2 2 1 1 3 4 5 5 6 8 9 8 7 7 8 9 11 12 13
9 18 10 11 7 10 10 14 6 12 13 12 8 5 5 7 8 10 12 14 15 14 11 10 8 7 4 3 5 6 5 4 3 4 3 2 3 4 2 3 4 3 3 4 4 6 10 10 9 8 8 8 10 12
15 16 8 9 6 8 12 15 17 12 11 12 16 13 10 8 15 18 18 19 17 14 13 11 11 10 6 4 5 7 6 4 2 3 4 4 4 4 3 5 4 3 2 2 2 4 6 8 11 14 15 17 17 17
16 15 13 8 6 7 11 9 7 7 6 7 8 11 8 6 5 13 16 14 13 13 13 12 13 9 8 8 8 6 6 5 5 3 4 4 3 3 3 3 2 1 1 2 3 5 6 6 8 11 13 15 17 18
8 8 12 10 5 8 9 8 8 4 5 6 8 9 10 8 8 9 9 10 11 11 12 14 13 11 9 9 10 10 8 6 5 4 4 3 2 2 2 1 1 2 3 4 6 7 8 9 11 12 13 14 15 15
Wind_Direction
303 310 309 318 314 327 331 327 330 337 334 333 345 339 316 316 318 326 321 320 275 276 302 273 300 298 290 279 295 324 315 23 311 316 324 348 307 353 296 322 292 186 184 242 219 216 216 359 292 285 344 316 317 229
290 294 309 317 311 319 328 324 328 334 320 322 331 332 329 318 309 300 295 301 303 263 272 288 287 293 262 265 274 270 297 295 306 305 348 321 315 309 329 288 352 214 342 272 269 60 13 24 33 359 339 318 322 292
291 294 300 308 307 311 321 320 324 325 292 301 312 320 319 313 301 287 282 283 283 278 298 272 288 278 271 313 225 249 292 287 285 338 324 299 291 324 310 329 327 325 335 281 143 234 356 38 27 8 3 346 327 316
286 288 290 300 303 307 316 320 320 318 285 288 311 318 322 318 300 270 264 274 288 274 273 292 300 289 292 266 224 229 271 282 282 302 294 310 295 295 293 304 297 290 305 325 293 41 296 114 18 360 2 7 358 15
284 286 288 296 297 302 312 317 316 313 282 281 314 321 324 321 322 279 268 276 275 257 292 299 308 312 300 272 223 231 250 262 264 275 259 268 279 293 264 271 265 345 17 359 341 356 334 334 345 356 13 15 359 22
286 284 282 291 292 297 311 315 313 308 271 292 312 323 332 327 321 317 300 306 283 251 279 292 304 300 296 282 257 243 235 228 230 246 265 264 266 283 286 274 310 174 320 334 321 323 331 353 314 352 9 352 4 29
285 280 279 285 286 294 311 312 307 301 289 293 310 321 321 328 325 321 294 292 302 203 257 287 279 287 313 302 258 185 194 213 219 246 250 266 272 240 262 273 285 297 290 321 324 332 349 5 357 338 342 354 20 25
283 276 279 278 281 296 309 307 300 304 299 302 318 314 313 306 295 297 293 295 252 184 248 280 283 295 328 297 286 193 199 224 232 251 256 263 282 232 255 262 287 292 300 297 276 342 327 352 358 7 315 325 21 35
277 278 276 273 283 299 306 300 292 288 300 307 308 309 312 304 280 294 304 234 184 213 288 255 293 317 337 314 298 235 237 244 236 249 248 270 251 236 262 289 292 293 289 298 314 307 354 360 354 1 8 348 8 25
273 280 273 274 288 301 302 292 293 292 297 298 308 280 220 133 106 104 264 195 241 234 235 262 279 277 308 300 285 286 226 267 272 229 255 247 258 261 271 283 286 280 264 256 252 246 275 317 320 332 17 19 18 29
266 276 269 278 293 300 297 293 294 296 310 276 214 176 180 183 189 255 252 244 215 241 220 250 269 294 268 276 308 296 309 277 278 78 279 261 275 332 316 308 311 287 257 234 244 260 272 270 265 351 13 17 28 27
265 269 270 284 296 298 298 304 298 281 272 214 171 146 143 188 208 248 233 223 228 275 214 256 306 268 273 244 264 224 272 266 267 341 258 260 29 343 348 352 15 3 286 220 247 257 262 261 243 321 1 356 32 26
262 265 273 288 298 299 310 308 297 227 199 140 152 147 182 158 226 231 205 203 233 202 218 246 283 269 235 237 261 256 246 243 297 244 272 333 3 359 18 52 66 29 50 66 63 70 91 121 168 176 155 104 65 56
255 262 273 289 293 321 326 319 128 149 148 168 165 178 227 183 234 213 235 252 214 235 249 267 281 245 265 244 240 253 262 295 266 265 302 4 359 10 74 81 73 57 64 56 55 62 81 89 92 101 104 95 75 57
248 256 272 270 242 316 240 152 154 159 201 194 197 220 216 232 245 238 239 251 249 252 244 273 257 246 236 263 236 278 253 254 253 312 337 359 358 22 61 65 57 54 48 49 47 56 53 49 48 20 1 8 6 3
239 255 252 234 177 154 162 157 149 184 241 220 230 233 224 242 246 235 241 253 251 239 234 234 255 249 241 245 235 228 257 250 25 7 8 355 344 4 30 34 45 49 44 33 27 29 24 357 328 312 306 307 307 310
226 232 221 175 161 153 167 181 188 257 245 231 237 231 235 262 258 244 246 254 223 201 224 203 221 222 240 238 226 223 244 269 355 327 314 310 309 309 340 357 39 18 4 358 350 342 332 328 323 315 308 303 295 293
216 191 169 157 163 163 183 199 242 248 249 241 242 242 230 245 253 256 247 237 199 224 236 237 256 219 234 240 240 247 265 276 288 297 309 281 268 245 294 292 313 319 319 314 315 317 318 315 310 302 297 295 293 292
206 183 179 176 180 176 176 204 221 260 246 255 257 256 255 260 260 263 260 252 238 241 241 227 235 236 240 244 261 277 281 278 288 286 279 302 259 273 310 303 299 293 293 294 297 302 304 300 297 296 295 293 290 288
198 192 189 193 178 186 208 217 213 251 258 250 252 260 258 259 274 266 260 243 219 210 211 228 238 245 251 259 263 271 278 281 281 283 287 295 249 283 299 298 292 285 283 287 290 297 303 299 297 295 289 283 281 283
191 192 187 185 194 204 232 212 230 241 267 253 269 267 277 270 267 268 264 233 207 212 235 248 257 257 249 250 260 266 270 271 270 269 273 278 275 278 286 287 291 288 280 279 285 290 294 296 298 294 290 286 282 280
186 175 180 192 191 199 238 221 229 251 251 264 276 268 271 277 277 265 207 210 235 244 235 277 286 278 266 258 256 258 265 265 264 264 267 268 268 271 271 281 286 281 282 286 290 295 296 295 294 293 293 294 294 292
168 166 165 174 193 223 217 204 209 213 244 256 261 259 246 252 247 288 252 235 246 243 264 281 287 288 287 283 264 260 257 260 264 266 264 262 260 266 270 274 277 285 290 293 293 300 302 302 304 299 299 301 303 302
159 174 173 191 199 205 184 195 210 226 227 237 226 262 236 232 268 243 257 253 228 257 274 295 296 288 263 264 280 291 294 288 274 276 270 259 256 256 269 279 286 289 295 305 311 311 312 309 309 311 309 310 310 307
170 183 193 199 195 191 191 199 192 207 236 218 255 247 215 196 242 239 241 237 230 249 269 276 274 281 285 289 292 280 274 286 285 285 290 288 283 282 277 285 287 295 311 320 324 326 327 325 326 328 329 325 321 320
201 198 195 193 187 190 188 186 198 207 195 217 233 235 202 225 238 238 227 213 225 278 305 294 268 273 269 271 285 276 268 270 268 272 291 302 296 265 251 255 270 296 319 325 335 343 349 351 348 343 341 340 339 339
212 198 194 196 192 182 186 185 175 183 195 211 208 188 193 223 234 235 217 212 235 283 298 287 276 286 259 263 280 287 284 262 256 258 277 286 255 249 270 281 288 298 315 339 354 2 9 12 11 9 6 3 1 2
210 189 180 180 184 193 188 180 195 204 211 200 184 195 213 210 235 197 181 220 295 299 299 286 288 299 271 261 272 283 263 228 226 215 202 234 311 331 334 328 329 336 360 3 356 4 7 10 16 21 23 25 24 27
192 175 160 173 175 190 210 202 212 212 203 187 201 203 219 218 213 190 240 298 300 288 281 275 280 262 275 265 258 215 172 160 146 161 187 202 272 288 101 58 44 53 52 43 32 24 15 13 20 30 36 41 43 45
185 173 177 176 183 202 211 201 215 220 214 213 221 234 241 243 236 251 281 291 285 280 268 256 244 226 265 255 201 193 204 216 226 224 225 229 226 195 202 308 313 295 315 358 18 31 38 43 45 50 54 59 62 62
181 182 182 181 213 210 209 217 223 232 234 234 235 238 250 258 268 275 278 278 268 254 242 238 219 214 226 233 221 215 230 234 260 256 239 230 205 203 265 297 301 302 327 8 47 66 70 72 75 75 75 76 77 78
180 190 190 189 201 206 207 205 214 219 224 226 235 233 243 247 260 275 257 249 240 234 231 219 203 209 211 225 225 220 223 246 268 252 219 205 219 260 283 289 289 316 69 87 97 97 96 97 99 97 94 92 89 86
177 182 200 198 171 188 185 178 195 214 220 228 230 223 224 228 243 247 243 234 220 217 213 197 201 211 218 228 228 235 244 245 239 201 195 207 222 264 277 251 156 126 126 123 117 111 110 111 110 107 104 101 98 95